Location: Rumah Dana
(3.1167°N, 113.0167°E)
Time: 02:15:50
(UTC+00:00)

ISS - Visible Passes

Search period start: 06 March 2026 00:00
Search period end: 16 March 2026 00:00
Orbit: 416 x 427 km, 51.6° (Epoch: 5 March)

Date Brightness Start Highest point End Pass type
(mag) Time Alt. Az. Time Alt. Az. Time Alt. Az.
6 Mar -3.8 11:28:59 10° SW 11:32:23 86° SE 11:34:56 17° NE visible
8 Mar -0.9 11:32:57 10° W 11:35:11 16° NW 11:37:26 10° NNW visible
8 Mar -1.1 21:31:11 10° N 21:33:39 19° NE 21:36:07 10° ESE visible
10 Mar -3.9 21:35:00 32° NW 21:36:21 68° SW 21:39:40 10° SSE visible
11 Mar -1.4 20:51:07 23° ESE 20:51:07 23° ESE 20:52:35 10° SE visible
12 Mar -1.3 21:40:13 11° SSW 21:40:13 11° SSW 21:40:25 10° SSW visible
